Ogden Hill AFB, UT

12:19 PM MDT on March 24, 2017 (GMT -0600)
Hill Air Force Base

Weather History for KHIF - January, 2013

Change the Weather History Date:

Wednesday, January 23, 2013

  Actual Average Record
Temperature  
Mean Temperature 10 °F -  
Max Temperature 17 °F 34 °F 50 °F (2003)
Min Temperature 3 °F 22 °F 3 °F (2013)
Degree Days  
Heating Degree Days 55    
Moisture  
Dew Point 4 °F    
Average Humidity 84    
Maximum Humidity 86    
Minimum Humidity 78    
Precipitation  
Precipitation 0.00 in - - ()
Sea Level Pressure  
Sea Level Pressure 30.38 in    
Wind  
Wind Speed 3 mph (WSW)    
Max Wind Speed 8 mph    
Max Gust Speed -    
Visibility 2 miles    
Events Snow    
Averages and records for this station are not official NWS values.
T = Trace of Precipitation, MM = Missing Value Source: NWS Daily Summary

Daily Weather History Graph

Daily Weather History Graph

Search for Another Location

Airport or City:

Trip Planner

Search our weather history database for the weather conditions in past years. The results will help you decide how hot, cold, wet, or windy it might be!

Date:

Astronomy

Jan. 23, 2013 Rise Set
Actual Time 7:46 AM MST 5:33 PM MST
Civil Twilight 7:16 AM MST 6:03 PM MST
Nautical Twilight 6:42 AM MST 6:37 PM MST
Astronomical Twilight 6:10 AM MST 7:09 PM MST
Moon 2:47 PM MST (1/23) 5:01 AM MST (1/23)
Length of Visible Light 10h 47m
Length of Day
9h 47m
Waxing Gibbous, 89% of the Moon is Illuminated
Jan 23
Waxing Gibbous
Jan 26
Full
Feb 3
Last Quarter
Feb 10
New
Feb 17
First Quarter

Hourly Weather History & Observations

Time (MST) Temp. Windchill Dew Point Humidity Pressure Visibility Wind Dir Wind Speed Gust Speed Precip Events Conditions
12:07 AM 3.2 °F - -0.4 °F 85% 30.32 in 0.5 mi West 2.3 mph - N/A   Haze
12:08 AM 3.2 °F - -0.4 °F 85% 30.32 in 0.5 mi West 2.3 mph - N/A   Light Freezing Drizzle
12:13 AM 3.2 °F -4.2 °F -0.4 °F 85% 30.32 in 0.2 mi West 3.5 mph - N/A   Light Freezing Drizzle
12:18 AM 3.2 °F -7.8 °F -0.4 °F 85% 30.33 in 0.2 mi West 5.8 mph - N/A   Light Freezing Drizzle
12:20 AM 3.2 °F -10.3 °F -0.4 °F 85% 30.33 in 0.2 mi West 8.1 mph - N/A Snow Heavy Snow
12:33 AM 5.0 °F -2.1 °F 1.4 °F 85% 30.35 in 0.2 mi West 3.5 mph - N/A   Haze
12:34 AM 5.0 °F - 1.4 °F 85% 30.35 in 0.2 mi West 2.3 mph - N/A   Light Freezing Drizzle
12:41 AM 6.8 °F - 3.2 °F 85% 30.35 in 0.2 mi ENE 1.2 mph - N/A Snow Heavy Snow
12:58 AM 6.3 °F - 2.1 °F 83% 30.36 in 0.2 mi Calm Calm - 0.00 in Snow Heavy Snow
1:05 AM 6.8 °F - 1.4 °F 79% 30.36 in 0.2 mi NE 2.3 mph - N/A   Haze
1:06 AM 6.8 °F - 1.4 °F 79% 30.36 in 0.2 mi East 2.3 mph - N/A   Light Freezing Drizzle
1:07 AM 6.8 °F - 3.2 °F 85% 30.36 in 0.2 mi East 2.3 mph - N/A Snow Heavy Snow
1:21 AM 6.8 °F - 3.2 °F 85% 30.34 in 0.2 mi Calm Calm - N/A   Haze
1:22 AM 6.8 °F - 3.2 °F 85% 30.34 in 0.2 mi Calm Calm - N/A   Light Freezing Drizzle
1:44 AM 5.0 °F - 1.4 °F 85% 30.33 in 0.2 mi Calm Calm - N/A   Haze
1:58 AM 3.9 °F -5.3 °F -0.4 °F 82% 30.55 in 0.2 mi West 4.6 mph - 0.00 in   Haze
2:01 AM 3.2 °F -4.2 °F -0.4 °F 85% 30.34 in 0.2 mi West 3.5 mph - N/A   Light Freezing Drizzle
2:23 AM 5.0 °F -2.1 °F -0.4 °F 78% 30.33 in 0.2 mi WSW 3.5 mph - N/A   Haze
2:33 AM 5.0 °F -4.1 °F 1.4 °F 85% 30.33 in 0.2 mi SW 4.6 mph - N/A   Light Freezing Drizzle
2:58 AM 6.3 °F - 2.1 °F 83% 30.50 in 0.2 mi ESE 1.2 mph - 0.00 in   Light Freezing Drizzle
3:21 AM 6.8 °F -0.1 °F 3.2 °F 85% 30.32 in 0.2 mi West 3.5 mph - N/A   Haze
3:28 AM 8.6 °F 2.0 °F 5.0 °F 85% 30.33 in 0.2 mi WNW 3.5 mph - N/A   Light Freezing Drizzle
3:35 AM 8.6 °F -1.3 °F 5.0 °F 85% 30.34 in 0.2 mi WNW 5.8 mph - N/A Snow Heavy Snow
3:45 AM 8.6 °F 2.0 °F 5.0 °F 85% 30.35 in 0.2 mi NNE 3.5 mph - N/A Snow Heavy Snow
3:58 AM 7.9 °F - 3.7 °F 83% 30.53 in 0.2 mi North 1.2 mph - 0.00 in Snow Heavy Snow
4:18 AM 8.6 °F - 3.2 °F 79% 30.33 in 0.2 mi ENE 2.3 mph - N/A   Haze
4:33 AM 8.6 °F - 3.2 °F 79% 30.32 in 0.2 mi Calm Calm - N/A   Haze
4:38 AM 6.8 °F - 3.2 °F 85% 30.32 in 0.2 mi Calm Calm - N/A   Haze
4:58 AM 7.3 °F - 3.2 °F 83% 30.54 in 0.2 mi SSW 1.2 mph - 0.00 in   Haze
5:14 AM 6.8 °F - 3.2 °F 85% 30.34 in 0.2 mi South 2.3 mph - N/A   Light Freezing Drizzle
5:42 AM 6.8 °F - 1.4 °F 79% 30.33 in 0.2 mi SW 2.3 mph - N/A Snow Heavy Snow
5:52 AM 6.8 °F - 3.2 °F 85% 30.33 in 0.5 mi Calm Calm - N/A Snow Snow
5:57 AM 6.8 °F -0.1 °F 3.2 °F 85% 30.33 in 0.5 mi East 3.5 mph - N/A Snow Snow
5:58 AM 6.8 °F -0.1 °F 3.2 °F 85% 30.54 in 0.5 mi East 3.5 mph - 0.00 in Snow Snow
6:23 AM 6.8 °F - 1.4 °F 79% 30.32 in 0.8 mi SE 1.2 mph - N/A Snow Light Snow
6:24 AM 6.8 °F - 1.4 °F 79% 30.32 in 0.8 mi Calm Calm - N/A   Haze
6:39 AM 6.8 °F - 3.2 °F 85% 30.32 in 0.8 mi Calm Calm - N/A   Haze
6:44 AM 6.8 °F - 3.2 °F 85% 30.32 in 0.5 mi SE 1.2 mph - N/A   Haze
6:46 AM 6.8 °F - 3.2 °F 85% 30.32 in 0.5 mi SSE 1.2 mph - N/A Snow Snow
6:58 AM 6.8 °F - 3.2 °F 85% 30.53 in 0.5 mi SSE 2.3 mph - 0.00 in Snow Snow
7:03 AM 6.8 °F - 3.2 °F 85% 30.30 in 1.0 mi South 2.3 mph - N/A Snow Light Snow
7:07 AM 6.8 °F - 3.2 °F 85% 30.30 in 0.8 mi SSW 2.3 mph - N/A   Haze
7:08 AM 6.8 °F -0.1 °F 3.2 °F 85% 30.30 in 0.5 mi SSW 3.5 mph - N/A   Light Freezing Drizzle
7:13 AM 6.8 °F - 3.2 °F 85% 30.30 in 0.5 mi South 2.3 mph - N/A   Light Freezing Drizzle
7:18 AM 6.8 °F -0.1 °F 3.2 °F 85% 30.30 in 0.8 mi SW 3.5 mph - N/A   Light Freezing Drizzle
7:23 AM 6.8 °F -0.1 °F 3.2 °F 85% 30.30 in 0.8 mi SW 3.5 mph - N/A   Light Freezing Drizzle
7:28 AM 6.8 °F -2.0 °F 1.4 °F 79% 30.29 in 1.0 mi SSW 4.6 mph - N/A   Light Freezing Drizzle
7:33 AM 6.8 °F -2.0 °F 1.4 °F 79% 30.30 in 2.0 mi SSW 4.6 mph - N/A   Light Freezing Drizzle
7:37 AM 6.8 °F -2.0 °F 1.4 °F 79% 30.30 in 2.5 mi SSW 4.6 mph - N/A   Haze
7:58 AM 7.0 °F 0.1 °F 2.8 °F 83% 30.52 in 2.0 mi WSW 3.5 mph - 0.00 in   Haze
8:13 AM 6.8 °F - 3.2 °F 85% 30.32 in 1.8 mi WNW 2.3 mph - N/A Snow Light Snow
8:58 AM 9.0 °F - 4.8 °F 83% 30.53 in 2.0 mi North 2.3 mph - 0.00 in   Haze
9:58 AM 10.2 °F - 6.1 °F 83% 30.55 in 2.0 mi North 2.3 mph - N/A   Haze
10:18 AM 10.4 °F - 6.8 °F 85% 30.33 in 3.0 mi NNW 1.2 mph - N/A   Partly Cloudy
10:58 AM 11.7 °F - 7.5 °F 83% 30.53 in 4.0 mi Calm Calm - N/A   Haze
11:23 AM 12.2 °F - 8.6 °F 85% 30.34 in 5.0 mi ENE 1.2 mph - N/A   Haze
11:58 AM 12.9 °F - 8.8 °F 84% 30.51 in 6.0 mi Calm Calm - N/A   Haze
12:58 PM 16.5 °F - 12.6 °F 84% 30.47 in 5.0 mi WSW 2.3 mph - N/A   Haze
1:58 PM 17.4 °F - 14.0 °F 86% 30.45 in 5.0 mi SW 2.3 mph - N/A   Clear
2:58 PM 17.1 °F 11.7 °F 13.6 °F 86% 30.43 in 7.0 mi WNW 3.5 mph - N/A   Clear
3:53 PM 14.0 °F 3.9 °F 10.4 °F 86% 30.27 in 4.0 mi WNW 6.9 mph - N/A   Clear
3:58 PM 13.8 °F 3.7 °F 10.0 °F 85% 30.45 in 4.0 mi WNW 6.9 mph - N/A   Clear
4:58 PM 13.5 °F - 9.9 °F 86% 30.43 in 5.0 mi Calm Calm - N/A   Clear
5:58 PM 12.7 °F 3.6 °F 9.1 °F 86% 30.44 in 5.0 mi NW 5.8 mph - N/A   Partly Cloudy
6:58 PM 12.4 °F - 8.6 °F 85% 30.44 in 5.0 mi North 2.3 mph - N/A   Clear
7:58 PM 11.5 °F - 7.7 °F 85% 30.44 in 5.0 mi Calm Calm - N/A   Clear
8:58 PM 11.7 °F - 8.1 °F 85% 30.43 in 6.0 mi South 2.3 mph - N/A   Clear
9:58 PM 13.1 °F 5.4 °F 9.3 °F 85% 30.42 in 6.0 mi SSW 4.6 mph - N/A   Mostly Cloudy
10:58 PM 11.7 °F - 7.9 °F 85% 30.42 in 6.0 mi WSW 2.3 mph - N/A   Scattered Clouds
11:58 PM 13.6 °F - 10.0 °F 86% 30.43 in 8.0 mi Calm Calm - N/A   Mostly Cloudy